Location: B�rgermoos
(47.6500°N, 9.0667°E)
Time: 05:42:27
(UTC+00:00)

Exosat Rocket - Pass Details

Date: 18 September 2020
Orbit: 760 x 2514 km, 72.3° (Epoch: 29 October)

Event Time Altitude Azimuth Distance (km) Brightness Sun altitude
Rises 18:58:31 0° 178° (S) 3,732 6.8 -15.6°
Reaches altitude 10° 19:01:28 10° 169° (S) 2,603 5.9 -16.0°
Maximum altitude 19:06:31 34° 106° (ESE) 1,308 4.1 -16.8°
Drops below altitude 10° 19:11:00 10° 42° (NE) 2,304 5.8 -17.5°
Sets 19:13:28 0° 33° (NNE) 3,242 6.6 -17.9°
